Location: Grandview
(34.8900°N, 117.1058°W)
Time: 06:36:53
(UTC-07:00)

OTV 5 (USA 277) - Pass Details

Date: 16 October 2017
Orbit: 404 x 417 km, 43.0° (Epoch: 07 September)

Event Time Altitude Azimuth Distance (km) Brightness Sun altitude
Rises 19:35:14 0° 297° (WNW) 2,353 ? -17.9°
Reaches altitude 10° 19:37:42 10° 315° (NW) 1,489 ? -18.4°
Maximum altitude 19:40:19 21° 6° (N) 1,001 ? -18.9°
Enters shadow 19:40:31 21° 11° (N) 1,004 ? -18.9°
